Location: The D'Auria's Ocala Star Observatory
(29.0276°N, 82.1742°W)
Time: 07:27:03
(UTC-04:00)

Okean 3 Rocket - Visible Passes

Search period start: 29 May 2017 00:00
Search period end: 08 June 2017 00:00
Orbit: 616 x 644 km, 82.5° (Epoch: 28 May)

Date Brightness Start Highest point End Pass type
(mag) Time Alt. Az. Time Alt. Az. Time Alt. Az.
30 May 6.7 01:08:02 11° NNE 01:08:02 11° NNE 01:08:18 10° NNE visible
31 May 6.6 01:28:42 14° N 01:28:42 14° N 01:29:18 10° N visible
01 Jun 6.6 01:49:21 12° NNW 01:49:21 12° NNW 01:49:45 10° NNW visible
02 Jun 6.6 00:32:37 10° NNE 00:32:37 10° NNE 00:32:41 10° NNE visible
03 Jun 6.5 00:53:15 14° N 00:53:15 14° N 00:53:56 10° N visible
04 Jun 6.5 01:13:51 15° NNW 01:13:51 15° NNW 01:14:38 10° N visible
05 Jun 6.7 01:34:27 11° NNW 01:34:27 11° NNW 01:34:41 10° NNW visible
06 Jun 6.3 00:17:40 15° NNE 00:17:40 15° NNE 00:18:28 10° NNE visible
07 Jun 6.2 00:38:14 18° N 00:38:14 18° N 00:39:24 10° N visible
